Overview Statistics Trail Chart Weather Telemetry Raw packets
 

This is the latest recevied weather packets stored in our database for station/object W7BTL. If no packets are shown the sender has not sent any weather packets the latest 10 day(s).

<< 87 88 89 90 91 92 93 >>
Time Temp. Humidity Pressure Rain* Wind** Luminosity Snow
1788011337 23.33° C 94% 1011.4 hPa 0 mm - 20 W/m² -
1788011031 23.33° C 94% 1011.4 hPa 0 mm - 17 W/m² -
1788010727 23.33° C 94% 1011.5 hPa 0 mm - 13 W/m² -
1788010425 23.33° C 94% 1011.5 hPa 0 mm - 8 W/m² -
1788010120 23.33° C 94% 1011.2 hPa 0 mm - 5 W/m² -
1788009815 23.33° C 94% 1011.3 hPa 0 mm - 3 W/m² -
1788009513 23.33° C 94% 1011.3 hPa 0 mm - 2 W/m² -
1788009208 23.33° C 93% 1011.3 hPa 0 mm - 1 W/m² -
1788008903 23.33° C 93% 1011 hPa 0 mm - 0 W/m² -
1788008601 23.33° C 93% 1011.1 hPa 0 mm - 0 W/m² -
1788008296 23.33° C 93% 1011.4 hPa 0 mm - 0 W/m² -
1788007994 23.33° C 93% 1011.1 hPa 0 mm - 0 W/m² -
1788007693 23.33° C 93% 1011.4 hPa 0 mm - 0 W/m² -
1788007389 23.33° C 93% 1011 hPa 0 mm - 0 W/m² -
1788007088 23.33° C 93% 1011 hPa 0 mm - 0 W/m² -
1788006787 23.33° C 93% 1011.3 hPa 0 mm - 0 W/m² -
1788006487 22.78° C 94% 1011.1 hPa 0 mm - 0 W/m² -
1788006176 22.78° C 94% 1011 hPa 0 mm - 0 W/m² -
1788005875 22.78° C 94% 1011.1 hPa 0 mm - 0 W/m² -
1788005570 22.78° C 93% 1011.4 hPa 0 mm - 0 W/m² -
1788005269 22.78° C 93% 1011.2 hPa 0 mm - 0 W/m² -
1788004968 22.78° C 93% 1011.2 hPa 0 mm - 0 W/m² -
1788004667 22.78° C 92% 1011.1 hPa 0 mm - 0 W/m² -
1788004363 22.78° C 92% 1010.9 hPa 0 mm - 0 W/m² -
1788004063 22.78° C 91% 1010.9 hPa 0 mm - 0 W/m² -

* Rain latest hour (hover to see other rain measurements)
** Current wind speed in m/s (hover to see current wind gust speed)